Regional Weather Roundup
Issued by NWS Goodland, KS

Home | Current Version | Previous Version | Text Only | Print | Product List | Glossary On
Versions: 1 2 3 4 5 6 7 8 9 10 11 12 13 14 15 16 17 18 19 20 21 22 23 24 25 26 27 28 29 30 31 32 33 34 35 36 37 38 39 40 41 42 43 44 45 46 47 48 49 50
000
ASUS43 KGLD 011208
RWRGLD

GOODLAND FORECAST AREA HOURLY WEATHER ROUNDUP
NATIONAL WEATHER SERVICE GOODLAND KS
600 AM MDT FRI AUG 01 2014

...OFFICIAL OBSERVATIONS...

CITY           SKY/WX    TMP DP  RH WIND       PRES   REMARKS
GOODLAND KS    CLEAR     55  52  89 NW6       30.18S
HILL CITY KS   CLEAR     59  55  87 W5        30.10R
IMPERIAL NEB   CLEAR     58  54  86 CALM      30.15R
MCCOOK NEB     CLEAR     57  54  89 E3        30.12R
AKRON CO       PTCLDY    59  54  83 W9        30.22S
BURLINGTON CO  CLEAR     56  52  86 W8        30.20S
LIMON CO       CLEAR     49  49 100 N3        30.27S FOG
$$

...UNOFFICIAL OBSERVATIONS...

CITY           SKY/WX    TMP DP  RH WIND       PRES   REMARKS
COLBY KS       CLEAR     61  55  82 W7        30.16R
GOVE KS          N/A     59  32  36 MISG        N/A
NORTON KS      CLEAR     57  54  88 W3        30.10R
OBERLIN KS     FAIR      57  54  88 CALM      30.12R
ST FRANCIS KS  PTCLDY    57  52  82 SW8       30.16R
TRIBUNE KS     CLEAR     57 N/A N/A W5        30.20R
WAKEENEY KS      N/A     62  50  66 MISG        N/A
TRENTON NEB      N/A     63  32  31 CALM        N/A
KIT CARSON CO    N/A     55  51  86 CALM        N/A
WRAY CO          N/A     57  57 100 W6        30.17R
YUMA CO          N/A     58  55  91 W5          N/A
$$


USA.gov is the U.S. government's official web portal to all federal, state and local government web resources and services.